STARLINK-1297, 45395

Orbit data source: Space-Track

STARLINK-1297, 45395 is a payload satellite owned by SpaceX/Seattle (US) in LEO that was launched on Wed, 18 Mar 2020 UTC via an FALCON 9 launch vehicle from the Air Force Eastern Test Range (AFETR). Payload-class satellites include a variety of spacecraft equipped with specific instruments for various scientific and technological missions. These include communications satellites like Starlink; space stations such as the ISS; scientific satellites like the Hubble; Earth observation satellites from companies like Planet Labs, Umbra, and HawkEye 360; GPS; miniature CubeSats for education and research; and military/defense satellites.

Not visible in the next 10 days
Identifier
45395, 2020-019AM
Orbit
LEO
Country
Flag of USUS
Related business
Manufacturer
SpaceX/Seattle
Mission
Partially operational Commercial Communications
Bus & Motor
STARLINK, Unknown motor
Mass
260 kg wet, ~248 kg dry
Launch date (UTC)
2020-03-18 (6 years ago)
Launch vehicle
FALCON 9
Launch site
Air Force Eastern Test Range (AFETR)
Object type
Payload
Rocket body
Debris
Shape & HBR
Box + 1 Pan, 10.1 m
Radar Cross Section
13.562 m², Large (>1 m²)

Expand to show TLE details & history
Last TLE update: 5 hours ago

TLE from 5 hours ago
0 STARLINK-1297
1 45395U 20019AM  26120.15545492  .00128228  00000-0  12949-2 0  9994
2 45395  53.0429 240.2330 0005228 277.3654  82.6766 15.64439755337441
Epoch: 2026-04-30T03:43Z
TLE epoch observation values (Epoch: 2026-04-30T03:43:51.305Z)
Latitude
0.00001°
Longitude
-33.83688°
Altitude
375.303 km
Speed
7.686 km/s
True Right ascension
16h 00m 55s
True Declination
0° 00' 00"
Sunlit
Object was in full shadow at epoch
Visualization orbit readout
Latitude
Unknown
Longitude
Unknown
Altitude
Unknown
Speed
Unknown
Apparent Right ascension
Unknown
Apparent Declination
Unknown
Sunlit
N/A
Visualization observer readout
Local Sidereal Time
16:39:49
Azimuth
Unknown
Elevation
Unknown
Doppler factor
Unknown
Orbital elements
Apogee altitude
378.66 km
Perigee altitude
371.599 km
Semi-major axis
6,753.267 km
Eccentricity
0.00052
Inclination
53.0429°
RAAN
240.233°
Arg. of periapsis
277.3654°
True anomaly
82.73602°
Mean anomaly
82.6766°
Eccentric anomaly
82.70631°
Mean motion
3.91086 °/min
Orbital period
92.05 mins
BSTAR
0.0012949
Loading maneuver chart data...
Computing Atmospheric mass density...
Loading historical data...
Loading historical data...
Loading historical data...
Loading historical data...
Loading historical data...
Loading historical data...
Loading historical data...

Documentation

Showing up to 5 results
|